FW8891 Weather Reports


Display with metric or nautical units.
time (UTC)temp
F
wind
direction
speed
MPH
gust
MPH
rain 1hr
in
rain 24hr
in
rain mn
in
humidity
%
barometer
mb
20260901045558 82 86 0.0 2.0 0.00 0.11 0.00 58 1014.3
20260901045058 83 86 0.0 2.0 0.00 0.11 0.00 58 1014.3
20260901044607 83 129 0.0 2.0 0.00 0.11 0.00 58 1014.3
20260901044059 83 0 0.0 2.0 0.00 0.11 0.00 58 1014.2
20260901043559 83 134 0.0 3.0 0.00 0.11 0.00 57 1014.2
20260901043109 83 115 0.0 3.0 0.00 0.11 0.00 57 1014.2
20260901042600 83 126 2.0 5.0 0.00 0.11 0.00 57 1014.2
20260901042059 84 136 1.0 5.0 0.00 0.11 0.00 57 1014.2
20260901041622 84 139 1.0 5.0 0.00 0.11 0.00 57 1014.3
20260901041102 84 121 2.0 6.0 0.00 0.11 0.00 58 1014.3
20260901040559 84 133 3.0 7.0 0.00 0.11 0.00 57 1014.2
20260901040139 84 127 4.0 7.0 0.00 0.11 0.00 57 1014.1
20260901035601 85 136 3.0 7.0 0.00 0.11 0.00 57 1014.0
20260901035058 85 127 4.0 7.0 0.00 0.11 0.00 56 1013.9
20260901034611 85 115 4.0 6.0 0.00 0.11 0.00 54 1014.0
20260901034101 85 128 3.0 6.0 0.00 0.11 0.00 52 1013.9
20260901033558 85 103 3.0 6.0 0.00 0.11 0.00 52 1013.9
20260901033110 85 141 2.0 6.0 0.00 0.11 0.00 52 1013.9
20260901032601 85 120 2.0 6.0 0.00 0.11 0.00 52 1013.8
20260901032102 85 139 3.0 7.0 0.00 0.11 0.00 51 1013.6
20260901031604 86 134 2.0 7.0 0.00 0.11 0.00 51 1013.5
20260901031059 86 108 3.0 7.0 0.00 0.11 0.00 51 1013.4
20260901030559 86 123 3.0 6.0 0.00 0.11 0.00 51 1013.3
20260901030111 86 139 3.0 6.0 0.00 0.11 0.00 51 1013.3
20260901025559 86 123 3.0 5.0 0.00 0.11 0.00 51 1013.1
20260901025103 86 142 2.0 4.0 0.00 0.11 0.00 52 1013.0
20260901024607 86 122 2.0 4.0 0.00 0.11 0.00 52 1012.8
20260901024058 86 129 2.0 4.0 0.00 0.11 0.00 52 1012.7
20260901023558 86 158 2.0 4.0 0.00 0.11 0.00 52 1012.6
20260901023107 86 146 1.0 3.0 0.00 0.11 0.00 54 1012.7
20260901022559 86 121 1.0 5.0 0.00 0.11 0.00 53 1012.8
20260901022059 86 143 1.0 6.0 0.00 0.11 0.00 53 1012.7
20260901021606 86 136 2.0 6.0 0.00 0.11 0.00 53 1012.7
20260901021059 86 101 4.0 6.0 0.00 0.11 0.00 53 1012.9
20260901020559 86 133 3.0 5.0 0.00 0.11 0.00 53 1013.0
20260901020111 86 140 3.0 5.0 0.00 0.11 0.00 53 1013.0
20260901015559 86 124 2.0 6.0 0.00 0.11 0.00 52 1013.0
20260901015059 86 139 3.0 6.0 0.00 0.11 0.00 52 1013.0
20260901014603 87 103 2.0 7.0 0.00 0.11 0.00 51 1013.2
20260901014059 87 91 2.0 7.0 0.00 0.11 0.00 52 1013.2
20260901013559 87 143 3.0 7.0 0.00 0.11 0.00 52 1013.0
20260901013104 87 138 3.0 6.0 0.00 0.11 0.00 52 1013.0
20260901012600 87 179 2.0 6.0 0.00 0.11 0.00 52 1013.2
20260901012101 87 113 2.0 5.0 0.00 0.11 0.00 53 1013.0
20260901011603 87 89 3.0 5.0 0.00 0.11 0.00 52 1013.0
20260901011059 87 165 1.0 4.0 0.00 0.11 0.00 52 1013.1
20260901010559 87 141 2.0 4.0 0.00 0.11 0.00 52 1013.2
20260901010116 87 129 3.0 7.0 0.00 0.11 0.00 52 1013.3
20260901005559 87 126 3.0 7.0 0.00 0.11 0.00 52 1013.3
20260901005058 87 123 4.0 7.0 0.00 0.11 0.00 52 1013.4
20260901004603 87 148 2.0 5.0 0.00 0.11 0.00 52 1013.3
20260901004059 87 119 1.0 7.0 0.00 0.11 0.00 52 1013.0
20260901003559 87 86 3.0 7.0 0.00 0.11 0.00 52 1013.1
20260901003110 87 129 4.0 7.0 0.00 0.11 0.00 52 1012.8
20260901002559 88 84 2.0 6.0 0.00 0.11 0.00 51 1013.0
20260901002059 88 140 4.0 7.0 0.00 0.11 0.00 51 1013.0
20260901001604 88 58 3.0 7.0 0.00 0.11 0.00 51 1013.2
20260901001103 88 132 3.0 7.0 0.00 0.11 0.00 51 1013.0
20260901000559 88 114 2.0 8.0 0.00 0.11 0.00 51 1013.1
20260901000107 88 175 2.0 8.0 0.00 0.11 0.00 51 1013.2
20260831235559 88 81 1.0 6.0 0.00 0.11 0.00 51 1013.3
20260831235059 88 77 2.0 6.0 0.00 0.11 0.00 51 1013.5
20260831234605 88 120 2.0 7.0 0.00 0.11 0.00 51 1013.3
20260831234101 88 83 3.0 7.0 0.00 0.11 0.00 50 1013.5
20260831233558 88 67 4.0 8.0 0.00 0.11 0.00 50 1013.5
20260831233125 89 127 4.0 8.0 0.00 0.11 0.00 49 1013.6
20260831232558 89 169 2.0 9.0 0.00 0.11 0.00 49 1013.6
20260831232058 89 109 2.0 9.0 0.00 0.11 0.00 49 1013.7
20260831231613 89 129 4.0 9.0 0.00 0.11 0.00 49 1013.7
20260831231059 89 166 3.0 11.0 0.00 0.11 0.00 49 1013.7
20260831230602 89 86 4.0 11.0 0.00 0.11 0.00 49 1013.8
20260831230114 90 94 4.0 8.0 0.00 0.11 0.00 49 1013.8
20260831225601 90 134 4.0 11.0 0.00 0.11 0.00 50 1013.9
20260831225058 90 128 2.0 11.0 0.00 0.11 0.00 49 1013.8
20260831224609 90 146 4.0 10.0 0.00 0.11 0.00 50 1013.9
20260831224059 89 87 4.0 13.0 0.00 0.11 0.00 51 1014.0
20260831223559 89 96 4.0 13.0 0.00 0.11 0.00 50 1014.1
20260831223111 89 141 5.0 13.0 0.00 0.11 0.00 50 1014.1
20260831222558 89 141 4.0 13.0 0.00 0.11 0.00 50 1014.2
20260831222058 89 72 5.0 13.0 0.00 0.11 0.00 51 1014.3
20260831221601 88 118 5.0 13.0 0.00 0.11 0.00 50 1014.3
20260831221058 89 134 5.0 11.0 0.00 0.11 0.00 50 1014.5
20260831220559 89 134 4.0 11.0 0.00 0.11 0.00 51 1014.6
20260831220105 89 106 6.0 11.0 0.00 0.11 0.00 51 1014.7
20260831215559 89 61 5.0 11.0 0.00 0.11 0.00 51 1014.9
20260831215059 89 68 5.0 12.0 0.00 0.11 0.00 50 1015.0
20260831214611 88 210 6.0 12.0 0.00 0.11 0.00 53 1015.2
20260831214103 88 90 5.0 12.0 0.00 0.11 0.00 53 1015.2
20260831213559 88 120 6.0 15.0 0.00 0.11 0.00 54 1015.3
20260831213110 88 86 5.0 15.0 0.00 0.11 0.00 55 1015.3
20260831212559 88 129 4.0 15.0 0.00 0.11 0.00 55 1015.4
20260831212059 88 90 7.0 15.0 0.00 0.11 0.00 56 1015.5
20260831211611 87 116 6.0 12.0 0.00 0.11 0.00 56 1015.6
20260831211059 87 144 5.0 12.0 0.00 0.11 0.00 56 1015.8
20260831210601 88 122 6.0 12.0 0.00 0.11 0.00 55 1015.9
20260831210107 88 107 5.0 12.0 0.00 0.11 0.00 55 1016.0
20260831205601 88 103 5.0 11.0 0.00 0.11 0.00 55 1016.1
20260831205058 87 302 6.0 13.0 0.00 0.11 0.00 55 1016.2
20260831204609 87 105 6.0 13.0 0.00 0.11 0.00 55 1016.1
20260831204059 88 114 4.0 10.0 0.00 0.11 0.00 55 1016.3
20260831203559 88 122 5.0 9.0 0.00 0.11 0.00 55 1016.4
20260831203116 87 127 4.0 10.0 0.00 0.11 0.00 55 1016.3
20260831202559 86 105 5.0 11.0 0.00 0.11 0.00 58 1016.4
20260831202103 86 81 6.0 12.0 0.00 0.11 0.00 58 1016.4
20260831201610 86 85 6.0 12.0 0.00 0.11 0.00 57 1016.4
20260831201104 87 58 7.0 12.0 0.00 0.11 0.00 57 1016.5
20260831200558 87 76 5.0 12.0 0.00 0.11 0.00 57 1016.5
20260831200111 87 66 6.0 12.0 0.00 0.11 0.00 56 1016.6
20260831195559 87 82 5.0 10.0 0.00 0.11 0.00 58 1016.7
20260831195058 86 151 3.0 10.0 0.00 0.11 0.00 58 1016.7
20260831194642 86 102 5.0 10.0 0.00 0.11 0.00 58 1016.7
20260831194059 86 112 4.0 10.0 0.00 0.11 0.00 58 1016.7
20260831193559 85 67 4.0 11.0 0.00 0.11 0.00 60 1016.8
20260831193106 85 81 5.0 11.0 0.00 0.11 0.00 61 1016.8
20260831192558 85 133 4.0 9.0 0.00 0.11 0.00 61 1016.9
20260831192058 84 78 4.0 8.0 0.00 0.11 0.00 63 1017.0
20260831191607 83 120 4.0 10.0 0.00 0.11 0.00 64 1017.0
20260831191103 83 68 4.0 10.0 0.00 0.11 0.00 65 1017.0
20260831190559 82 99 2.0 10.0 0.00 0.11 0.00 65 1017.0
20260831190109 82 61 3.0 9.0 0.00 0.11 0.00 66 1017.1
20260831185558 82 56 4.0 9.0 0.00 0.11 0.00 66 1017.1
20260831185102 82 89 4.0 9.0 0.00 0.11 0.00 66 1017.1
20260831184607 82 122 4.0 9.0 0.00 0.11 0.00 66 1017.1
20260831184102 83 75 3.0 9.0 0.00 0.11 0.00 66 1017.2
20260831183558 82 69 4.0 8.0 0.00 0.11 0.00 67 1017.2
20260831183110 82 76 4.0 8.0 0.00 0.11 0.00 68 1017.2
20260831182559 82 147 3.0 8.0 0.00 0.11 0.00 69 1017.3
20260831182102 82 44 2.0 7.0 0.00 0.11 0.00 68 1017.3
20260831181611 81 76 4.0 8.0 0.00 0.11 0.00 69 1017.4
20260831181056 81 10 4.0 8.0 0.00 0.11 0.00 69 1017.5
20260831180558 82 347 3.0 8.0 0.00 0.11 0.00 69 1017.5
20260831180121 81 79 3.0 7.0 0.00 0.11 0.00 70 1017.5
20260831175559 81 53 4.0 8.0 0.00 0.11 0.00 70 1017.5
20260831175103 81 65 3.0 8.0 0.00 0.11 0.00 70 1017.6
20260831174603 80 65 4.0 8.0 0.00 0.11 0.00 71 1017.6
20260831174059 80 122 4.0 7.0 0.00 0.11 0.00 72 1017.7
20260831173559 80 114 2.0 7.0 0.00 0.11 0.00 73 1017.6
20260831173104 79 56 3.0 7.0 0.00 0.11 0.00 74 1017.6
20260831172600 79 75 3.0 7.0 0.00 0.11 0.00 75 1017.7
20260831172059 79 55 4.0 7.0 0.00 0.11 0.00 75 1017.6
20260831171602 79 158 4.0 8.0 0.00 0.11 0.00 74 1017.6
20260831171059 79 134 4.0 8.0 0.00 0.11 0.00 74 1017.6
20260831170559 79 89 3.0 9.0 0.00 0.11 0.00 74 1017.6
20260831165558 79 95 2.0 7.0 0.00 0.11 0.00 74 1017.6
20260831165058 79 65 3.0 8.0 0.00 0.11 0.00 74 1017.6
20260831164604 79 101 4.0 8.0 0.00 0.11 0.00 72 1017.6
20260831164102 79 111 4.0 9.0 0.00 0.11 0.00 72 1017.7
20260831163601 78 94 4.0 9.0 0.00 0.11 0.00 72 1017.7
20260831163103 78 79 5.0 9.0 0.00 0.11 0.00 72 1017.7
20260831162558 78 146 4.0 14.0 0.00 0.11 0.00 73 1017.6
20260831162100 78 56 7.0 14.0 0.00 0.11 0.00 74 1017.5
20260831161612 78 144 5.0 14.0 0.00 0.11 0.00 75 1017.3
20260831161058 78 95 6.0 14.0 0.00 0.11 0.00 75 1017.5
20260831160558 78 62 5.0 11.0 0.00 0.11 0.00 76 1017.5
20260831160106 78 103 5.0 11.0 0.00 0.11 0.00 76 1017.4
20260831155559 78 98 4.0 11.0 0.00 0.11 0.00 77 1017.5
20260831155058 78 158 4.0 11.0 0.00 0.11 0.00 76 1017.4
20260831154633 78 103 5.0 10.0 0.00 0.11 0.00 76 1017.3
20260831154059 78 8 3.0 10.0 0.00 0.11 0.00 78 1017.2
20260831153558 78 6 3.0 11.0 0.00 0.11 0.00 78 1017.2
20260831153114 78 90 6.0 11.0 0.00 0.11 0.00 77 1017.1
20260831152559 78 36 4.0 12.0 0.00 0.11 0.00 76 1017.0
20260831152059 78 72 5.0 14.0 0.00 0.11 0.00 75 1017.1
20260831151622 78 89 6.0 14.0 0.00 0.11 0.00 73 1017.1
20260831151059 78 85 6.0 13.0 0.00 0.11 0.00 73 1017.0
20260831150600 79 110 6.0 13.0 0.00 0.11 0.00 73 1016.8
20260831150106 79 135 6.0 13.0 0.00 0.11 0.00 72 1016.7
20260831145559 79 181 8.0 14.0 0.00 0.11 0.00 72 1016.6
20260831145059 79 110 7.0 14.0 0.00 0.11 0.00 71 1016.6
20260831144605 79 185 5.0 9.0 0.00 0.11 0.00 71 1016.4
20260831144059 79 79 6.0 9.0 0.00 0.11 0.00 70 1016.3
20260831143559 79 115 4.0 8.0 0.00 0.11 0.00 71 1016.1
20260831143103 79 95 3.0 7.0 0.00 0.11 0.00 73 1016.0
20260831142600 79 63 2.0 6.0 0.00 0.11 0.00 74 1015.8
20260831142100 79 94 1.0 4.0 0.00 0.11 0.00 74 1015.5
20260831141606 79 108 1.0 3.0 0.00 0.11 0.00 74 1015.4
20260831141101 78 65 1.0 2.0 0.00 0.11 0.00 74 1015.3
20260831140559 78 0 0.0 2.0 0.00 0.11 0.00 74 1015.2
20260831140106 78 99 0.0 3.0 0.00 0.11 0.00 75 1015.1
20260831135600 78 0 1.0 3.0 0.00 0.11 0.00 75 1015.1
20260831135059 78 39 0.0 5.0 0.00 0.11 0.00 75 1014.9
20260831134606 78 55 2.0 5.0 0.00 0.11 0.00 74 1014.6
20260831134058 78 71 3.0 4.0 0.00 0.11 0.00 74 1014.5
20260831133559 78 58 2.0 4.0 0.00 0.11 0.00 73 1014.5
20260831133104 78 73 2.0 3.0 0.00 0.11 0.00 72 1014.5
20260831132559 78 68 0.0 3.0 0.00 0.11 0.00 72 1014.4
20260831132100 78 0 0.0 3.0 0.00 0.11 0.00 71 1014.3
20260831131615 79 46 0.0 2.0 0.00 0.11 0.00 70 1014.2
20260831131059 79 0 0.0 2.0 0.00 0.11 0.00 69 1014.0
20260831130559 79 105 0.0 2.0 0.00 0.11 0.00 68 1013.9
20260831130114 79 113 1.0 4.0 0.00 0.11 0.00 68 1013.9
20260831125559 79 0 1.0 4.0 0.00 0.11 0.00 67 1013.9
20260831125059 79 94 2.0 5.0 0.00 0.11 0.00 67 1013.8
20260831124608 79 146 2.0 5.0 0.00 0.11 0.00 68 1013.7
20260831124059 79 115 0.0 4.0 0.00 0.11 0.00 67 1013.6
20260831123558 79 134 2.0 4.0 0.00 0.11 0.00 66 1013.6
20260831123108 79 108 0.0 5.0 0.00 0.11 0.00 65 1013.5
20260831122603 79 81 2.0 5.0 0.00 0.11 0.00 65 1013.4
20260831122102 79 92 3.0 7.0 0.00 0.11 0.00 64 1013.3
20260831121604 79 82 3.0 7.0 0.00 0.11 0.00 63 1013.2
20260831121059 79 74 4.0 9.0 0.00 0.11 0.00 63 1013.2
20260831120559 79 55 4.0 9.0 0.00 0.11 0.00 64 1013.0
20260831120116 78 84 4.0 9.0 0.00 0.11 0.00 65 1012.9
20260831115559 78 60 4.0 9.0 0.00 0.11 0.00 65 1012.9
20260831115100 78 119 4.0 7.0 0.00 0.11 0.00 65 1012.8
20260831114606 78 142 2.0 6.0 0.00 0.11 0.00 66 1012.7
20260831114059 78 102 3.0 7.0 0.00 0.11 0.00 66 1012.6
20260831113559 78 71 2.0 7.0 0.00 0.11 0.00 67 1012.5
20260831113108 77 82 3.0 6.0 0.00 0.11 0.00 69 1012.4
20260831112559 77 122 1.0 3.0 0.00 0.11 0.00 69 1012.5
20260831112059 78 117 0.0 3.0 0.00 0.11 0.00 68 1012.4
20260831111605 78 136 0.0 3.0 0.00 0.11 0.00 68 1012.4
20260831111058 78 109 1.0 3.0 0.00 0.11 0.00 68 1012.3
20260831110558 77 79 0.0 6.0 0.00 0.11 0.00 68 1012.2
20260831110111 77 0 2.0 6.0 0.00 0.11 0.00 69 1012.1
20260831105559 77 90 3.0 5.0 0.00 0.11 0.00 69 1012.2
20260831105101 78 123 3.0 6.0 0.00 0.11 0.00 68 1012.2
20260831104612 78 103 3.0 6.0 0.00 0.11 0.00 68 1012.1
20260831104059 78 75 2.0 6.0 0.00 0.11 0.00 68 1012.0
20260831103558 78 124 2.0 7.0 0.00 0.11 0.00 68 1012.0
20260831103104 78 115 4.0 7.0 0.00 0.11 0.00 67 1012.1
20260831102558 78 111 2.0 4.0 0.00 0.11 0.00 68 1012.2
20260831102058 77 128 2.0 5.0 0.00 0.11 0.00 69 1012.2
20260831101609 77 117 2.0 6.0 0.00 0.11 0.00 70 1012.2
20260831101059 77 157 2.0 6.0 0.00 0.11 0.00 70 1012.2
20260831100600 77 118 4.0 6.0 0.00 0.11 0.00 71 1012.2
20260831100124 78 142 2.0 4.0 0.00 0.11 0.00 72 1012.3
20260831095559 78 139 2.0 6.0 0.00 0.11 0.00 71 1012.3
20260831095059 79 131 4.0 6.0 0.00 0.11 0.00 69 1012.2
20260831094605 79 116 3.0 6.0 0.00 0.11 0.00 65 1012.2
20260831094059 79 126 3.0 6.0 0.00 0.11 0.00 66 1012.3
20260831093559 79 113 3.0 5.0 0.00 0.11 0.00 65 1012.3
20260831093110 79 134 1.0 9.0 0.00 0.11 0.00 64 1012.2
20260831092559 80 77 4.0 9.0 0.00 0.11 0.00 62 1012.0
20260831092100 79 53 3.0 8.0 0.00 0.11 0.00 62 1011.9
20260831091604 79 316 2.0 8.0 0.00 0.11 0.00 64 1011.7
20260831091059 79 73 3.0 7.0 0.00 0.11 0.00 64 1011.7
20260831090559 79 9 1.0 4.0 0.00 0.11 0.00 63 1011.8
20260831090115 79 81 1.0 9.0 0.00 0.11 0.00 63 1011.8
20260831085600 79 75 1.0 9.0 0.00 0.11 0.00 63 1011.9
20260831085100 79 29 3.0 7.0 0.00 0.11 0.00 64 1011.9
20260831084611 79 273 2.0 10.0 0.00 0.11 0.00 64 1012.0
20260831084059 79 331 3.0 10.0 0.00 0.11 0.00 65 1012.0
20260831083559 79 347 4.0 11.0 0.00 0.11 0.00 65 1012.0
20260831083102 80 314 3.0 13.0 0.00 0.11 0.00 65 1012.0
20260831082559 80 14 7.0 16.0 0.00 0.11 0.00 64 1012.0
20260831082100 80 346 8.0 19.0 0.00 0.11 0.00 63 1011.9
20260831081605 80 307 10.0 19.0 0.00 0.11 0.00 64 1011.8
20260831081059 79 326 5.0 13.0 0.00 0.11 0.00 66 1011.9
20260831080559 80 79 5.0 15.0 0.00 0.11 0.00 65 1011.9
20260831080108 80 22 8.0 18.0 0.00 0.11 0.00 65 1011.8
20260831075602 80 345 6.0 18.0 0.00 0.11 0.00 62 1011.8
20260831075059 80 335 8.0 18.0 0.00 0.11 0.00 62 1011.8
20260831074602 80 1 6.0 17.0 0.00 0.11 0.00 62 1011.9
20260831074059 80 27 7.0 18.0 0.01 0.11 0.00 62 1011.8
20260831073559 80 292 8.0 19.0 0.04 0.11 0.00 64 1012.0
20260831073105 79 331 12.0 19.0 0.06 0.11 0.00 65 1012.1
20260831072558 79 356 9.0 21.0 0.06 0.11 0.00 67 1012.3
20260831072058 79 24 12.0 21.0 0.06 0.11 0.00 66 1012.5
20260831071603 77 298 11.0 19.0 0.06 0.11 0.00 71 1012.7
20260831071059 76 43 7.0 16.0 0.06 0.11 0.00 77 1012.9
20260831070559 75 348 6.0 16.0 0.06 0.11 0.00 78 1013.2
20260831070115 74 13 8.0 16.0 0.06 0.11 0.00 81 1013.3
20260831065559 73 330 7.0 20.0 0.06 0.15 0.11 83 1013.6
20260831065058 73 299 10.0 20.0 0.06 0.15 0.11 82 1014.1
20260831064614 74 315 14.0 20.0 0.06 0.15 0.11 81 1014.1
20260831064059 76 297 8.0 15.0 0.04 0.13 0.09 76 1013.7
20260831063559 77 300 8.0 15.0 0.02 0.11 0.07 79 1014.1
20260831063110 76 314 8.0 15.0 0.00 0.09 0.05 77 1014.3
20260831062603 76 312 7.0 16.0 0.00 0.09 0.05 76 1014.7
20260831062100 76 342 8.0 16.0 0.00 0.09 0.05 75 1014.6
20260831061608 76 288 6.0 16.0 0.02 0.09 0.05 75 1014.6
20260831061101 76 320 5.0 13.0 0.03 0.09 0.05 75 1014.7
20260831060559 76 272 7.0 13.0 0.03 0.09 0.05 75 1014.7
20260831060112 76 252 8.0 18.0 0.03 0.09 0.05 77 1014.7
20260831055559 76 224 8.0 18.0 0.03 0.09 0.05 77 1015.0
20260831055059 75 306 10.0 18.0 0.03 0.09 0.05 82 1015.1
20260831054606 76 224 11.0 18.0 0.03 0.09 0.05 84 1015.2
20260831054059 77 104 8.0 18.0 0.03 0.09 0.05 81 1014.9
20260831053602 77 336 8.0 17.0 0.05 0.09 0.05 81 1014.6
20260831053108 79 236 10.0 15.0 0.05 0.09 0.05 77 1014.7
20260831052600 80 221 1.0 11.0 0.05 0.09 0.05 73 1014.9
20260831052058 80 315 3.0 11.0 0.05 0.09 0.05 71 1014.7
20260831051608 81 216 3.0 12.0 0.03 0.07 0.03 71 1014.4
20260831051059 81 205 3.0 12.0 0.02 0.06 0.02 69 1014.2
20260831050558 82 255 8.0 16.0 0.02 0.06 0.02 73 1014.2
20260831050119 82 259 5.0 16.0 0.02 0.06 0.02 72 1013.7